Location: Slemon Park
(46.4340°N, 63.8219°W)
Time: 17:27:10
(UTC-03:00)

ISS - All Passes

Search period start: 28 June 2016 00:00
Search period end: 08 July 2016 00:00
Orbit: 402 x 403 km, 51.6° (Epoch: 28 June)

Date Brightness Start Highest point End Pass type
(mag) Time Alt. Az. Time Alt. Az. Time Alt. Az.
28 Jun - 09:37:45 10° SSW 09:40:44 33° SE 09:43:43 10° ENE daylight
28 Jun - 11:13:54 10° W 11:17:06 51° NNW 11:20:19 10° ENE daylight
28 Jun - 12:51:00 10° WNW 12:53:59 31° N 12:56:57 10° ENE daylight
28 Jun - 14:27:36 10° WNW 14:30:50 56° NNE 14:34:04 10° E daylight
28 Jun - 16:04:16 10° W 16:07:09 28° SW 16:10:01 10° SSE daylight
29 Jun - 08:45:41 10° S 08:48:07 19° SE 08:50:33 10° E daylight
29 Jun - 10:20:59 10° WSW 10:24:15 75° NNW 10:27:31 10° ENE daylight
29 Jun - 11:58:02 10° WNW 12:01:02 32° N 12:04:01 10° ENE daylight
29 Jun - 13:34:49 10° WNW 13:37:57 41° NNE 13:41:05 10° E daylight
29 Jun - 15:11:17 10° WNW 15:14:28 49° SW 15:17:38 10° SE daylight
30 Jun - 07:54:33 10° SSE 07:55:33 11° SE 07:56:34 10° ESE daylight
30 Jun - 09:28:12 10° SW 09:31:27 68° SSE 09:34:43 10° ENE daylight
30 Jun - 11:05:00 10° W 11:08:04 36° NNW 11:11:09 10° ENE daylight
30 Jun - 12:41:58 10° WNW 12:45:01 34° N 12:48:03 10° ENE daylight
30 Jun - 14:18:25 10° WNW 14:21:42 84° SSW 14:24:58 10° ESE daylight
30 Jun - 15:55:52 10° W 15:57:42 14° SW 15:59:32 10° S daylight
01 Jul - 08:35:38 10° SW 08:38:43 39° SE 08:41:47 10° ENE daylight
01 Jul - 10:11:58 10° W 10:15:08 46° NNW 10:18:19 10° ENE daylight
01 Jul - 11:49:03 10° WNW 11:52:02 31° N 11:55:01 10° ENE daylight
01 Jul - 13:25:36 10° WNW 13:28:52 63° NNE 13:32:06 10° ESE daylight
01 Jul - 15:02:22 10° W 15:05:06 24° SW 15:07:49 10° SSE daylight
02 Jul - 07:43:23 10° SSW 07:46:01 23° SE 07:48:41 10° E daylight
02 Jul - 09:18:59 10° WSW 09:22:14 66° NNW 09:25:30 10° ENE daylight
02 Jul - 10:56:03 10° WNW 10:59:02 31° N 11:02:01 10° ENE daylight
02 Jul - 12:32:46 10° WNW 12:35:57 44° NNE 12:39:06 10° E daylight
02 Jul - 14:09:17 10° WNW 14:12:24 42° SW 14:15:30 10° SE daylight
03 Jul - 06:51:46 10° SSE 06:53:24 13° SE 06:55:02 10° ESE daylight
03 Jul - 08:26:07 10° WSW 08:29:22 79° SSE 08:32:39 10° ENE daylight
03 Jul - 10:02:59 10° WNW 10:06:02 35° N 10:09:05 10° ENE daylight
03 Jul - 11:39:55 10° WNW 11:42:59 36° N 11:46:03 10° E daylight
03 Jul - 13:16:21 10° WNW 13:19:37 73° SSW 13:22:52 10° SE daylight
03 Jul - 14:54:12 10° WSW 14:55:33 12° SW 14:56:53 10° SSW daylight
04 Jul - 07:33:26 10° SW 07:36:35 46° SE 07:39:44 10° ENE daylight
04 Jul - 09:09:55 10° W 09:13:03 43° NNW 09:16:12 10° ENE daylight
04 Jul - 10:46:59 10° WNW 10:49:58 32° N 10:52:57 10° ENE daylight
04 Jul - 12:23:29 10° WNW 12:26:45 71° NNE 12:30:01 10° ESE daylight
04 Jul - 14:00:23 10° W 14:02:55 21° SW 14:05:28 10° S daylight
05 Jul - 06:41:02 10° SSW 06:43:50 26° SE 06:46:38 10° E daylight
05 Jul - 08:16:52 10° WSW 08:20:06 59° NNW 08:23:21 10° ENE daylight
05 Jul - 09:53:58 10° WNW 09:56:56 31° N 09:59:55 10° ENE daylight
05 Jul - 11:30:37 10° WNW 11:33:50 48° NNE 11:37:00 10° E daylight
05 Jul - 13:07:10 10° WNW 13:10:13 36° SW 13:13:14 10° SSE daylight
06 Jul - 05:49:08 10° S 05:51:09 15° SE 05:53:11 10° E daylight
06 Jul - 07:23:55 10° WSW 07:27:11 90° E 07:30:28 10° ENE daylight
06 Jul - 09:00:52 10° WNW 09:03:54 33° N 09:06:55 10° ENE daylight
06 Jul - 10:37:44 10° WNW 10:40:50 37° NNE 10:43:55 10° E daylight
06 Jul - 12:14:10 10° WNW 12:17:25 63° SSW 12:20:39 10° SE daylight
06 Jul - 13:52:59 10° SW 13:53:16 10° SW 13:53:33 10° SW daylight
07 Jul - 06:31:08 10° SW 06:34:20 54° SSE 06:37:32 10° ENE daylight
07 Jul - 08:07:44 10° W 08:10:51 40° NNW 08:13:58 10° ENE daylight
07 Jul - 09:44:47 10° WNW 09:47:47 32° N 09:50:47 10° ENE daylight
07 Jul - 11:21:15 10° WNW 11:24:32 80° NNE 11:27:48 10° ESE daylight
07 Jul - 12:58:19 10° W 13:00:38 18° SW 13:02:56 10° S daylight
